Year,Month,Day,Hour,Minute,Value (Times are PST for temperature in C)
2007,05,05,00,00,3.90
2007,05,05,00,01,3.90
2007,05,05,00,02,3.90
2007,05,05,00,03,3.90
2007,05,05,00,04,3.80
2007,05,05,00,05,3.80
2007,05,05,00,06,3.80
2007,05,05,00,07,3.80
2007,05,05,00,08,3.70
2007,05,05,00,09,3.70
2007,05,05,00,10,3.70
2007,05,05,00,11,3.60
2007,05,05,00,12,3.60
2007,05,05,00,13,3.60
2007,05,05,00,14,3.60
2007,05,05,00,15,3.60
2007,05,05,00,16,3.60
2007,05,05,00,17,3.50
2007,05,05,00,18,3.50
2007,05,05,00,19,3.50
2007,05,05,00,20,3.50
2007,05,05,00,21,3.40
2007,05,05,00,22,3.40
2007,05,05,00,23,3.40
2007,05,05,00,24,3.30
2007,05,05,00,25,3.30
2007,05,05,00,26,3.30
2007,05,05,00,27,3.30
2007,05,05,00,28,3.30
2007,05,05,00,29,3.20
2007,05,05,00,30,3.20
2007,05,05,00,31,3.20
2007,05,05,00,32,3.20
2007,05,05,00,33,3.20
2007,05,05,00,34,3.20
2007,05,05,00,35,3.20
2007,05,05,00,36,3.20
2007,05,05,00,37,3.20
2007,05,05,00,38,3.20
2007,05,05,00,39,3.10
2007,05,05,00,40,3.10
2007,05,05,00,41,3.10
2007,05,05,00,42,3.10
2007,05,05,00,43,3.10
2007,05,05,00,44,3.10
2007,05,05,00,45,3.00
2007,05,05,00,46,3.00
2007,05,05,00,47,3.00
2007,05,05,00,48,3.00
2007,05,05,00,49,3.00
2007,05,05,00,50,3.00
2007,05,05,00,51,3.00
2007,05,05,00,52,2.90
2007,05,05,00,53,2.90
2007,05,05,00,54,2.90
2007,05,05,00,55,2.90
2007,05,05,00,56,2.90
2007,05,05,00,57,2.90
2007,05,05,00,58,2.90
2007,05,05,00,59,2.80
2007,05,05,01,00,2.90
2007,05,05,01,01,2.90
2007,05,05,01,02,2.90
2007,05,05,01,03,2.90
2007,05,05,01,04,2.90
2007,05,05,01,05,2.90
2007,05,05,01,06,2.90
2007,05,05,01,07,2.90
2007,05,05,01,08,2.90
2007,05,05,01,09,2.90
2007,05,05,01,10,2.80
2007,05,05,01,11,2.80
2007,05,05,01,12,2.80
2007,05,05,01,13,2.80
2007,05,05,01,14,2.80
2007,05,05,01,15,2.80
2007,05,05,01,16,2.70
2007,05,05,01,17,2.70
2007,05,05,01,18,2.70
2007,05,05,01,19,2.70
2007,05,05,01,20,2.70
2007,05,05,01,21,2.70
2007,05,05,01,22,2.70
2007,05,05,01,23,2.70
2007,05,05,01,24,2.70
2007,05,05,01,25,2.70
2007,05,05,01,26,2.60
2007,05,05,01,27,2.60
2007,05,05,01,28,2.60
2007,05,05,01,29,2.60
2007,05,05,01,30,2.60
2007,05,05,01,31,2.60
2007,05,05,01,32,2.60
2007,05,05,01,33,2.50
2007,05,05,01,34,2.50
2007,05,05,01,35,2.50
2007,05,05,01,36,2.40
2007,05,05,01,37,2.40
2007,05,05,01,38,2.40
2007,05,05,01,39,2.40
2007,05,05,01,40,2.40
2007,05,05,01,41,2.30
2007,05,05,01,42,2.30
2007,05,05,01,43,2.30
2007,05,05,01,44,2.30
2007,05,05,01,45,2.30
2007,05,05,01,46,2.30
2007,05,05,01,47,2.30
2007,05,05,01,48,2.30
2007,05,05,01,49,2.30
2007,05,05,01,50,2.30
2007,05,05,01,51,2.20
2007,05,05,01,52,2.20
2007,05,05,01,53,2.20
2007,05,05,01,54,2.20
2007,05,05,01,55,2.20
2007,05,05,01,56,2.20
2007,05,05,01,57,2.30
2007,05,05,01,58,2.30
2007,05,05,01,59,2.30
2007,05,05,02,00,2.30
2007,05,05,02,01,2.30
2007,05,05,02,02,2.40
2007,05,05,02,03,2.40
2007,05,05,02,04,2.50
2007,05,05,02,05,2.60
2007,05,05,02,06,2.60
2007,05,05,02,07,2.60
2007,05,05,02,08,2.60
2007,05,05,02,09,2.60
2007,05,05,02,10,2.50
2007,05,05,02,11,2.50
2007,05,05,02,12,2.50
2007,05,05,02,13,2.40
2007,05,05,02,14,2.40
2007,05,05,02,15,2.30
2007,05,05,02,16,2.30
2007,05,05,02,17,2.20
2007,05,05,02,18,2.20
2007,05,05,02,19,2.10
2007,05,05,02,20,2.10
2007,05,05,02,21,2.10
2007,05,05,02,22,2.10
2007,05,05,02,23,2.10
2007,05,05,02,24,2.00
2007,05,05,02,25,2.00
2007,05,05,02,26,2.00
2007,05,05,02,27,2.00
2007,05,05,02,28,2.00
2007,05,05,02,29,2.00
2007,05,05,02,30,1.90
2007,05,05,02,31,1.90
2007,05,05,02,32,1.90
2007,05,05,02,33,1.90
2007,05,05,02,34,2.00
2007,05,05,02,35,2.00
2007,05,05,02,36,2.00
2007,05,05,02,37,2.00
2007,05,05,02,38,2.00
2007,05,05,02,39,2.00
2007,05,05,02,40,2.00
2007,05,05,02,41,2.10
2007,05,05,02,42,2.10
2007,05,05,02,43,2.10
2007,05,05,02,44,2.10
2007,05,05,02,45,2.00
2007,05,05,02,46,2.00
2007,05,05,02,47,1.90
2007,05,05,02,48,1.90
2007,05,05,02,49,1.90
2007,05,05,02,50,1.90
2007,05,05,02,51,1.90
2007,05,05,02,52,1.90
2007,05,05,02,53,1.90
2007,05,05,02,54,1.90
2007,05,05,02,55,1.90
2007,05,05,02,56,1.90
2007,05,05,02,57,2.00
2007,05,05,02,58,2.20
2007,05,05,02,59,2.20
2007,05,05,03,00,2.30
2007,05,05,03,01,2.30
2007,05,05,03,02,2.40
2007,05,05,03,03,2.40
2007,05,05,03,04,2.50
2007,05,05,03,05,2.50
2007,05,05,03,06,2.50
2007,05,05,03,07,2.60
2007,05,05,03,08,2.60
2007,05,05,03,09,2.60
2007,05,05,03,10,2.60
2007,05,05,03,11,2.60
2007,05,05,03,12,2.50
2007,05,05,03,13,2.50
2007,05,05,03,14,2.50
2007,05,05,03,15,2.40
2007,05,05,03,16,2.40
2007,05,05,03,17,2.40
2007,05,05,03,18,2.40
2007,05,05,03,19,2.40
2007,05,05,03,20,2.40
2007,05,05,03,21,2.40
2007,05,05,03,22,2.40
2007,05,05,03,23,2.30
2007,05,05,03,24,2.30
2007,05,05,03,25,2.20
2007,05,05,03,26,2.20
2007,05,05,03,27,2.20
2007,05,05,03,28,2.20
2007,05,05,03,29,2.20
2007,05,05,03,30,2.20
2007,05,05,03,31,2.20
2007,05,05,03,32,2.20
2007,05,05,03,33,2.20
2007,05,05,03,34,2.20
2007,05,05,03,35,2.20
2007,05,05,03,36,2.20
2007,05,05,03,37,2.20
2007,05,05,03,38,2.20
2007,05,05,03,39,2.30
2007,05,05,03,40,2.30
2007,05,05,03,41,2.20
2007,05,05,03,42,2.20
2007,05,05,03,43,2.10
2007,05,05,03,44,2.20
2007,05,05,03,45,2.20
2007,05,05,03,46,2.30
2007,05,05,03,47,2.40
2007,05,05,03,48,2.40
2007,05,05,03,49,2.50
2007,05,05,03,50,2.50
2007,05,05,03,51,2.60
2007,05,05,03,52,2.60
2007,05,05,03,53,2.70
2007,05,05,03,54,2.70
2007,05,05,03,55,2.80
2007,05,05,03,56,2.80
2007,05,05,03,57,3.00
2007,05,05,03,58,3.00
2007,05,05,03,59,3.10
2007,05,05,04,00,3.10
2007,05,05,04,01,3.10
2007,05,05,04,02,3.10
2007,05,05,04,03,3.10
2007,05,05,04,04,3.10
2007,05,05,04,05,3.10
2007,05,05,04,06,3.10
2007,05,05,04,07,3.10
2007,05,05,04,08,3.10
2007,05,05,04,09,3.10
2007,05,05,04,10,3.10
2007,05,05,04,11,3.20
2007,05,05,04,12,3.20
2007,05,05,04,13,3.20
2007,05,05,04,14,3.20
2007,05,05,04,15,3.20
2007,05,05,04,16,3.20
2007,05,05,04,17,3.20
2007,05,05,04,18,3.20
2007,05,05,04,19,3.20
2007,05,05,04,20,3.20
2007,05,05,04,21,3.20
2007,05,05,04,22,3.20
2007,05,05,04,23,3.20
2007,05,05,04,24,3.20
2007,05,05,04,25,3.10
2007,05,05,04,26,3.20
2007,05,05,04,27,3.20
2007,05,05,04,28,3.20
2007,05,05,04,29,3.20
2007,05,05,04,30,3.20
2007,05,05,04,31,3.20
2007,05,05,04,32,3.20
2007,05,05,04,33,3.20
2007,05,05,04,34,3.20
2007,05,05,04,35,3.20
2007,05,05,04,36,3.20
2007,05,05,04,37,3.10
2007,05,05,04,38,3.20
2007,05,05,04,39,3.20
2007,05,05,04,40,3.20
2007,05,05,04,41,3.20
2007,05,05,04,42,3.20
2007,05,05,04,43,3.20
2007,05,05,04,44,3.20
2007,05,05,04,45,3.20
2007,05,05,04,46,3.20
2007,05,05,04,47,3.20
2007,05,05,04,48,3.20
2007,05,05,04,49,3.20
2007,05,05,04,50,3.20
2007,05,05,04,51,3.10
2007,05,05,04,52,3.10
2007,05,05,04,53,3.10
2007,05,05,04,54,3.10
2007,05,05,04,55,3.00
2007,05,05,04,56,3.00
2007,05,05,04,57,3.00
2007,05,05,04,58,3.00
2007,05,05,04,59,3.00
2007,05,05,05,00,3.00
2007,05,05,05,01,3.00
2007,05,05,05,02,2.90
2007,05,05,05,03,2.90
2007,05,05,05,04,2.90
2007,05,05,05,05,2.90
2007,05,05,05,06,2.90
2007,05,05,05,07,2.90
2007,05,05,05,08,2.90
2007,05,05,05,09,2.90
2007,05,05,05,10,2.90
2007,05,05,05,11,2.90
2007,05,05,05,12,2.80
2007,05,05,05,13,2.80
2007,05,05,05,14,2.80
2007,05,05,05,15,2.70
2007,05,05,05,16,2.70
2007,05,05,05,17,2.70
2007,05,05,05,18,2.60
2007,05,05,05,19,2.60
2007,05,05,05,20,2.60
2007,05,05,05,21,2.70
2007,05,05,05,22,2.70
2007,05,05,05,23,2.80
2007,05,05,05,24,2.80
2007,05,05,05,25,2.80
2007,05,05,05,26,2.80
2007,05,05,05,27,2.80
2007,05,05,05,28,2.80
2007,05,05,05,29,2.80
2007,05,05,05,30,2.80
2007,05,05,05,31,2.80
2007,05,05,05,32,2.80
2007,05,05,05,33,2.80
2007,05,05,05,34,2.70
2007,05,05,05,35,2.70
2007,05,05,05,36,2.60
2007,05,05,05,37,2.50
2007,05,05,05,38,2.50
2007,05,05,05,39,2.40
2007,05,05,05,40,2.40
2007,05,05,05,41,2.30
2007,05,05,05,42,2.30
2007,05,05,05,43,2.30
2007,05,05,05,44,2.30
2007,05,05,05,45,2.20
2007,05,05,05,46,2.20
2007,05,05,05,47,2.20
2007,05,05,05,48,2.20
2007,05,05,05,49,2.20
2007,05,05,05,50,2.20
2007,05,05,05,51,2.20
2007,05,05,05,52,2.20
2007,05,05,05,53,2.20
2007,05,05,05,54,2.20
2007,05,05,05,55,2.20
2007,05,05,05,56,2.20
2007,05,05,05,57,2.20
2007,05,05,05,58,2.20
2007,05,05,05,59,2.30
2007,05,05,06,00,2.30
2007,05,05,06,01,2.30
2007,05,05,06,02,2.40
2007,05,05,06,03,2.40
2007,05,05,06,04,2.50
2007,05,05,06,05,2.50
2007,05,05,06,06,2.60
2007,05,05,06,07,2.70
2007,05,05,06,08,2.70
2007,05,05,06,09,2.80
2007,05,05,06,10,2.90
2007,05,05,06,11,3.00
2007,05,05,06,12,3.10
2007,05,05,06,13,3.10
2007,05,05,06,14,3.10
2007,05,05,06,15,3.20
2007,05,05,06,16,3.20
2007,05,05,06,17,3.20
2007,05,05,06,18,3.20
2007,05,05,06,19,3.30
2007,05,05,06,20,3.30
2007,05,05,06,21,3.30
2007,05,05,06,22,3.40
2007,05,05,06,23,3.40
2007,05,05,06,24,3.40
2007,05,05,06,25,3.50
2007,05,05,06,26,3.50
2007,05,05,06,27,3.50
2007,05,05,06,28,3.50
2007,05,05,06,29,3.50
2007,05,05,06,30,3.50
2007,05,05,06,31,3.50
2007,05,05,06,32,3.50
2007,05,05,06,33,3.50
2007,05,05,06,34,3.50
2007,05,05,06,35,3.50
2007,05,05,06,36,3.60
2007,05,05,06,37,3.60
2007,05,05,06,38,3.60
2007,05,05,06,39,3.60
2007,05,05,06,40,3.70
2007,05,05,06,41,3.70
2007,05,05,06,42,3.70
2007,05,05,06,43,3.70
2007,05,05,06,44,3.70
2007,05,05,06,45,3.70
2007,05,05,06,46,3.70
2007,05,05,06,47,3.70
2007,05,05,06,48,3.70
2007,05,05,06,49,3.70
2007,05,05,06,50,3.70
2007,05,05,06,51,3.70
2007,05,05,06,52,3.70
2007,05,05,06,53,3.70
2007,05,05,06,54,3.70
2007,05,05,06,55,3.70
2007,05,05,06,56,3.70
2007,05,05,06,57,3.70
2007,05,05,06,58,3.70
2007,05,05,06,59,3.70
2007,05,05,07,00,3.70
2007,05,05,07,01,3.70
2007,05,05,07,02,3.80
2007,05,05,07,03,3.80
2007,05,05,07,04,3.80
2007,05,05,07,05,3.80
2007,05,05,07,06,3.80
2007,05,05,07,07,3.80
2007,05,05,07,08,3.90
2007,05,05,07,09,3.90
2007,05,05,07,10,3.90
2007,05,05,07,11,3.90
2007,05,05,07,12,3.90
2007,05,05,07,13,3.90
2007,05,05,07,14,4.00
2007,05,05,07,15,4.00
2007,05,05,07,16,4.00
2007,05,05,07,17,4.00
2007,05,05,07,18,4.00
2007,05,05,07,19,4.10
2007,05,05,07,20,4.10
2007,05,05,07,21,4.10
2007,05,05,07,22,4.10
2007,05,05,07,23,4.10
2007,05,05,07,24,4.20
2007,05,05,07,25,4.20
2007,05,05,07,26,4.20
2007,05,05,07,27,4.20
2007,05,05,07,28,4.20
2007,05,05,07,29,4.20
2007,05,05,07,30,4.20
2007,05,05,07,31,4.30
2007,05,05,07,32,4.30
2007,05,05,07,33,4.30
2007,05,05,07,34,4.30
2007,05,05,07,35,4.30
2007,05,05,07,36,4.30
2007,05,05,07,37,4.30
2007,05,05,07,38,4.30
2007,05,05,07,39,4.30
2007,05,05,07,40,4.30
2007,05,05,07,41,4.30
2007,05,05,07,42,4.30
2007,05,05,07,43,4.40
2007,05,05,07,44,4.40
2007,05,05,07,45,4.40
2007,05,05,07,46,4.40
2007,05,05,07,47,4.50
2007,05,05,07,48,4.50
2007,05,05,07,49,4.60
2007,05,05,07,50,4.60
2007,05,05,07,51,4.60
2007,05,05,07,52,4.70
2007,05,05,07,53,4.70
2007,05,05,07,54,4.70
2007,05,05,07,55,4.70
2007,05,05,07,56,4.80
2007,05,05,07,57,4.80
2007,05,05,07,58,4.80
2007,05,05,07,59,4.80
2007,05,05,08,00,4.80
2007,05,05,08,01,4.80
2007,05,05,08,02,4.80
2007,05,05,08,03,4.90
2007,05,05,08,04,4.90
2007,05,05,08,05,4.90
2007,05,05,08,06,4.90
2007,05,05,08,07,4.90
2007,05,05,08,08,4.90
2007,05,05,08,09,4.90
2007,05,05,08,10,4.90
2007,05,05,08,11,4.90
2007,05,05,08,12,4.90
2007,05,05,08,13,5.00
2007,05,05,08,14,5.00
2007,05,05,08,15,5.00
2007,05,05,08,16,5.00
2007,05,05,08,17,5.10
2007,05,05,08,18,5.10
2007,05,05,08,19,5.10
2007,05,05,08,20,5.10
2007,05,05,08,21,5.10
2007,05,05,08,22,5.10
2007,05,05,08,23,5.20
2007,05,05,08,24,5.20
2007,05,05,08,25,5.20
2007,05,05,08,26,5.20
2007,05,05,08,27,5.30
2007,05,05,08,28,5.30
2007,05,05,08,29,5.30
2007,05,05,08,30,5.30
2007,05,05,08,31,5.30
2007,05,05,08,32,5.40
2007,05,05,08,33,5.40
2007,05,05,08,34,5.40
2007,05,05,08,35,5.40
2007,05,05,08,36,5.40
2007,05,05,08,37,5.50
2007,05,05,08,38,5.50
2007,05,05,08,39,5.50
2007,05,05,08,40,5.60
2007,05,05,08,41,5.60
2007,05,05,08,42,5.60
2007,05,05,08,43,5.60
2007,05,05,08,44,5.60
2007,05,05,08,45,5.60
2007,05,05,08,46,5.60
2007,05,05,08,47,5.70
2007,05,05,08,48,5.70
2007,05,05,08,49,5.70
2007,05,05,08,50,5.70
2007,05,05,08,51,5.80
2007,05,05,08,52,5.80
2007,05,05,08,53,5.80
2007,05,05,08,54,5.80
2007,05,05,08,55,5.80
2007,05,05,08,56,5.80
2007,05,05,08,57,5.90
2007,05,05,08,58,5.90
2007,05,05,08,59,5.90
2007,05,05,09,00,5.90
2007,05,05,09,01,6.00
2007,05,05,09,02,6.00
2007,05,05,09,03,6.10
2007,05,05,09,04,6.10
2007,05,05,09,05,6.10
2007,05,05,09,06,6.10
2007,05,05,09,07,6.10
2007,05,05,09,08,6.20
2007,05,05,09,09,6.20
2007,05,05,09,10,6.30
2007,05,05,09,11,6.30
2007,05,05,09,12,6.30
2007,05,05,09,13,6.30
2007,05,05,09,14,6.40
2007,05,05,09,15,6.40
2007,05,05,09,16,6.40
2007,05,05,09,17,6.40
2007,05,05,09,18,6.40
2007,05,05,09,19,6.40
2007,05,05,09,20,6.40
2007,05,05,09,21,6.40
2007,05,05,09,22,6.40
2007,05,05,09,23,6.40
2007,05,05,09,24,6.40
2007,05,05,09,25,6.40
2007,05,05,09,26,6.50
2007,05,05,09,27,6.60
2007,05,05,09,28,6.60
2007,05,05,09,29,6.70
2007,05,05,09,30,6.70
2007,05,05,09,31,6.70
2007,05,05,09,32,6.70
2007,05,05,09,33,6.80
2007,05,05,09,34,6.80
2007,05,05,09,35,6.80
2007,05,05,09,36,6.80
2007,05,05,09,37,6.80
2007,05,05,09,38,6.80
2007,05,05,09,39,6.80
2007,05,05,09,40,6.80
2007,05,05,09,41,6.80
2007,05,05,09,42,6.90
2007,05,05,09,43,6.90
2007,05,05,09,44,7.00
2007,05,05,09,45,7.00
2007,05,05,09,46,7.10
2007,05,05,09,47,7.10
2007,05,05,09,48,7.10
2007,05,05,09,49,7.10
2007,05,05,09,50,7.20
2007,05,05,09,51,7.20
2007,05,05,09,52,7.20
2007,05,05,09,53,7.20
2007,05,05,09,54,7.20
2007,05,05,09,55,7.20
2007,05,05,09,56,7.30
2007,05,05,09,57,7.40
2007,05,05,09,58,7.40
2007,05,05,09,59,7.50
2007,05,05,10,00,7.50
2007,05,05,10,01,7.50
2007,05,05,10,02,7.50
2007,05,05,10,03,7.60
2007,05,05,10,04,7.60
2007,05,05,10,05,7.60
2007,05,05,10,06,7.60
2007,05,05,10,07,7.60
2007,05,05,10,08,7.70
2007,05,05,10,09,7.70
2007,05,05,10,10,7.70
2007,05,05,10,11,7.80
2007,05,05,10,12,7.80
2007,05,05,10,13,7.80
2007,05,05,10,14,7.80
2007,05,05,10,15,7.90
2007,05,05,10,16,7.90
2007,05,05,10,17,7.90
2007,05,05,10,18,7.80
2007,05,05,10,19,7.80
2007,05,05,10,20,7.80
2007,05,05,10,21,7.80
2007,05,05,10,22,7.80
2007,05,05,10,23,7.90
2007,05,05,10,24,7.90
2007,05,05,10,25,7.90
2007,05,05,10,26,8.00
2007,05,05,10,27,8.00
2007,05,05,10,28,8.00
2007,05,05,10,29,7.90
2007,05,05,10,30,7.90
2007,05,05,10,31,7.90
2007,05,05,10,32,7.90
2007,05,05,10,33,7.90
2007,05,05,10,34,7.90
2007,05,05,10,35,7.90
2007,05,05,10,36,7.90
2007,05,05,10,37,7.90
2007,05,05,10,38,7.90
2007,05,05,10,39,8.00
2007,05,05,10,40,8.00
2007,05,05,10,41,8.00
2007,05,05,10,42,8.00
2007,05,05,10,43,8.10
2007,05,05,10,44,8.10
2007,05,05,10,45,8.10
2007,05,05,10,46,8.10
2007,05,05,10,47,8.20
2007,05,05,10,48,8.20
2007,05,05,10,49,8.20
2007,05,05,10,50,8.20
2007,05,05,10,51,8.30
2007,05,05,10,52,8.40
2007,05,05,10,53,8.40
2007,05,05,10,54,8.50
2007,05,05,10,55,8.60
2007,05,05,10,56,8.60
2007,05,05,10,57,8.60
2007,05,05,10,58,8.70
2007,05,05,10,59,8.70
2007,05,05,11,00,8.70
2007,05,05,11,01,8.80
2007,05,05,11,02,8.80
2007,05,05,11,03,8.80
2007,05,05,11,04,8.80
2007,05,05,11,05,8.90
2007,05,05,11,06,8.90
2007,05,05,11,07,9.00
2007,05,05,11,08,9.10
2007,05,05,11,09,9.00
2007,05,05,11,10,8.90
2007,05,05,11,11,8.90
2007,05,05,11,12,9.00
2007,05,05,11,13,9.10
2007,05,05,11,14,9.10
2007,05,05,11,15,9.10
2007,05,05,11,16,9.10
2007,05,05,11,17,9.20
2007,05,05,11,18,9.20
2007,05,05,11,19,9.20
2007,05,05,11,20,9.30
2007,05,05,11,21,9.40
2007,05,05,11,22,9.50
2007,05,05,11,23,9.60
2007,05,05,11,24,9.80
2007,05,05,11,25,9.90
2007,05,05,11,26,10.00
2007,05,05,11,27,9.90
2007,05,05,11,28,9.90
2007,05,05,11,29,9.90
2007,05,05,11,30,9.70
2007,05,05,11,31,9.70
2007,05,05,11,32,9.60
2007,05,05,11,33,9.60
2007,05,05,11,34,9.70
2007,05,05,11,35,9.70
2007,05,05,11,36,9.80
2007,05,05,11,37,9.90
2007,05,05,11,38,10.00
2007,05,05,11,39,10.10
2007,05,05,11,40,10.20
2007,05,05,11,41,10.20
2007,05,05,11,42,10.20
2007,05,05,11,43,10.20
2007,05,05,11,44,10.30
2007,05,05,11,45,10.30
2007,05,05,11,46,10.40
2007,05,05,11,47,10.40
2007,05,05,11,48,10.50
2007,05,05,11,49,10.50
2007,05,05,11,50,10.60
2007,05,05,11,51,10.60
2007,05,05,11,52,10.60
2007,05,05,11,53,10.70
2007,05,05,11,54,10.70
2007,05,05,11,55,10.70
2007,05,05,11,56,10.80
2007,05,05,11,57,10.80
2007,05,05,11,58,10.80
2007,05,05,11,59,10.80
2007,05,05,12,00,10.90
2007,05,05,12,01,10.90
2007,05,05,12,02,10.90
2007,05,05,12,03,11.00
2007,05,05,12,04,11.00
2007,05,05,12,05,10.90
2007,05,05,12,06,10.90
2007,05,05,12,07,10.80
2007,05,05,12,08,10.80
2007,05,05,12,09,10.80
2007,05,05,12,10,10.80
2007,05,05,12,11,10.70
2007,05,05,12,12,10.70
2007,05,05,12,13,10.60
2007,05,05,12,14,10.50
2007,05,05,12,15,10.50
2007,05,05,12,16,10.50
2007,05,05,12,17,10.50
2007,05,05,12,18,10.60
2007,05,05,12,19,10.60
2007,05,05,12,20,10.70
2007,05,05,12,21,10.80
2007,05,05,12,22,10.80
2007,05,05,12,23,10.80
2007,05,05,12,24,10.80
2007,05,05,12,25,10.70
2007,05,05,12,26,10.70
2007,05,05,12,27,10.70
2007,05,05,12,28,10.80
2007,05,05,12,29,10.80
2007,05,05,12,30,10.80
2007,05,05,12,31,10.80
2007,05,05,12,32,10.70
2007,05,05,12,33,10.70
2007,05,05,12,34,10.60
2007,05,05,12,35,10.60
2007,05,05,12,36,10.60
2007,05,05,12,37,10.60
2007,05,05,12,38,10.60
2007,05,05,12,39,10.60
2007,05,05,12,40,10.70
2007,05,05,12,41,10.70
2007,05,05,12,42,10.70
2007,05,05,12,43,10.70
2007,05,05,12,44,10.60
2007,05,05,12,45,10.60
2007,05,05,12,46,10.50
2007,05,05,12,47,10.40
2007,05,05,12,48,10.30
2007,05,05,12,49,10.30
2007,05,05,12,50,10.30
2007,05,05,12,51,10.20
2007,05,05,12,52,10.20
2007,05,05,12,53,10.20
2007,05,05,12,54,10.10
2007,05,05,12,55,10.10
2007,05,05,12,56,10.00
2007,05,05,12,57,10.00
2007,05,05,12,58,10.00
2007,05,05,12,59,10.00
2007,05,05,13,00,10.10
2007,05,05,13,01,10.10
2007,05,05,13,02,10.00
2007,05,05,13,03,10.00
2007,05,05,13,04,10.00
2007,05,05,13,05,10.00
2007,05,05,13,06,10.10
2007,05,05,13,07,10.10
2007,05,05,13,08,10.20
2007,05,05,13,09,10.20
2007,05,05,13,10,10.30
2007,05,05,13,11,10.30
2007,05,05,13,12,10.40
2007,05,05,13,13,10.50
2007,05,05,13,14,10.50
2007,05,05,13,15,10.60
2007,05,05,13,16,10.50
2007,05,05,13,17,10.50
2007,05,05,13,18,10.40
2007,05,05,13,19,10.40
2007,05,05,13,20,10.40
2007,05,05,13,21,10.40
2007,05,05,13,22,10.40
2007,05,05,13,23,10.50
2007,05,05,13,24,10.60
2007,05,05,13,25,10.70
2007,05,05,13,26,10.70
2007,05,05,13,27,10.60
2007,05,05,13,28,10.60
2007,05,05,13,29,10.50
2007,05,05,13,30,10.50
2007,05,05,13,31,10.50
2007,05,05,13,32,10.50
2007,05,05,13,33,10.50
2007,05,05,13,34,10.50
2007,05,05,13,35,10.60
2007,05,05,13,36,10.60
2007,05,05,13,37,10.60
2007,05,05,13,38,10.70
2007,05,05,13,39,10.80
2007,05,05,13,40,10.80
2007,05,05,13,41,10.90
2007,05,05,13,42,10.90
2007,05,05,13,43,11.00
2007,05,05,13,44,11.00
2007,05,05,13,45,11.10
2007,05,05,13,46,11.20
2007,05,05,13,47,11.20
2007,05,05,13,48,11.20
2007,05,05,13,49,11.30
2007,05,05,13,50,11.20
2007,05,05,13,51,11.20
2007,05,05,13,52,11.10
2007,05,05,13,53,11.10
2007,05,05,13,54,11.10
2007,05,05,13,55,11.10
2007,05,05,13,56,11.10
2007,05,05,13,57,11.20
2007,05,05,13,58,11.30
2007,05,05,13,59,11.40
2007,05,05,14,00,11.40
2007,05,05,14,01,11.50
2007,05,05,14,02,11.70
2007,05,05,14,03,11.70
2007,05,05,14,04,11.80
2007,05,05,14,05,11.70
2007,05,05,14,06,11.60
2007,05,05,14,07,11.60
2007,05,05,14,08,11.70
2007,05,05,14,09,11.70
2007,05,05,14,10,11.70
2007,05,05,14,11,11.60
2007,05,05,14,12,11.60
2007,05,05,14,13,11.60
2007,05,05,14,14,11.60
2007,05,05,14,15,11.60
2007,05,05,14,16,11.60
2007,05,05,14,17,11.50
2007,05,05,14,18,11.50
2007,05,05,14,19,11.40
2007,05,05,14,20,11.30
2007,05,05,14,21,11.40
2007,05,05,14,22,11.40
2007,05,05,14,23,11.50
2007,05,05,14,24,11.60
2007,05,05,14,25,11.60
2007,05,05,14,26,11.70
2007,05,05,14,27,11.80
2007,05,05,14,28,11.70
2007,05,05,14,29,11.60
2007,05,05,14,30,11.60
2007,05,05,14,31,11.50
2007,05,05,14,32,11.50
2007,05,05,14,33,11.40
2007,05,05,14,34,11.50
2007,05,05,14,35,11.60
2007,05,05,14,36,11.60
2007,05,05,14,37,11.70
2007,05,05,14,38,11.70
2007,05,05,14,39,11.70
2007,05,05,14,40,11.70
2007,05,05,14,41,11.70
2007,05,05,14,42,11.80
2007,05,05,14,43,11.80
2007,05,05,14,44,11.90
2007,05,05,14,45,11.80
2007,05,05,14,46,11.80
2007,05,05,14,47,11.80
2007,05,05,14,48,11.80
2007,05,05,14,49,11.80
2007,05,05,14,50,11.80
2007,05,05,14,51,11.80
2007,05,05,14,52,11.80
2007,05,05,14,53,11.80
2007,05,05,14,54,11.80
2007,05,05,14,55,11.80
2007,05,05,14,56,11.80
2007,05,05,14,57,11.90
2007,05,05,14,58,11.90
2007,05,05,14,59,11.90
2007,05,05,15,00,11.90
2007,05,05,15,01,11.90
2007,05,05,15,02,11.90
2007,05,05,15,03,11.90
2007,05,05,15,04,11.80
2007,05,05,15,05,11.80
2007,05,05,15,06,11.80
2007,05,05,15,07,11.80
2007,05,05,15,08,11.90
2007,05,05,15,09,11.90
2007,05,05,15,10,11.90
2007,05,05,15,11,11.90
2007,05,05,15,12,11.90
2007,05,05,15,13,11.80
2007,05,05,15,14,11.80
2007,05,05,15,15,11.70
2007,05,05,15,16,11.70
2007,05,05,15,17,11.70
2007,05,05,15,18,11.80
2007,05,05,15,19,11.80
2007,05,05,15,20,11.80
2007,05,05,15,21,11.80
2007,05,05,15,22,11.70
2007,05,05,15,23,11.70
2007,05,05,15,24,11.70
2007,05,05,15,25,11.70
2007,05,05,15,26,11.70
2007,05,05,15,27,11.70
2007,05,05,15,28,11.60
2007,05,05,15,29,11.50
2007,05,05,15,30,11.40
2007,05,05,15,31,11.40
2007,05,05,15,32,11.40
2007,05,05,15,33,11.40
2007,05,05,15,34,11.40
2007,05,05,15,35,11.50
2007,05,05,15,36,11.50
2007,05,05,15,37,11.50
2007,05,05,15,38,11.50
2007,05,05,15,39,11.50
2007,05,05,15,40,11.50
2007,05,05,15,41,11.40
2007,05,05,15,42,11.40
2007,05,05,15,43,11.40
2007,05,05,15,44,11.30
2007,05,05,15,45,11.30
2007,05,05,15,46,11.30
2007,05,05,15,47,11.30
2007,05,05,15,48,11.30
2007,05,05,15,49,11.30
2007,05,05,15,50,11.30
2007,05,05,15,51,11.40
2007,05,05,15,52,11.30
2007,05,05,15,53,11.20
2007,05,05,15,54,11.20
2007,05,05,15,55,11.20
2007,05,05,15,56,11.20
2007,05,05,15,57,11.20
2007,05,05,15,58,11.20
2007,05,05,15,59,11.30
2007,05,05,16,00,11.30
2007,05,05,16,01,11.30
2007,05,05,16,02,11.20
2007,05,05,16,03,11.20
2007,05,05,16,04,11.10
2007,05,05,16,05,11.00
2007,05,05,16,06,11.00
2007,05,05,16,07,10.90
2007,05,05,16,08,10.90
2007,05,05,16,09,10.80
2007,05,05,16,10,10.80
2007,05,05,16,11,10.80
2007,05,05,16,12,10.80
2007,05,05,16,13,10.80
2007,05,05,16,14,10.80
2007,05,05,16,15,10.80
2007,05,05,16,16,10.70
2007,05,05,16,17,10.80
2007,05,05,16,18,10.80
2007,05,05,16,19,10.80
2007,05,05,16,20,10.70
2007,05,05,16,21,10.70
2007,05,05,16,22,10.70
2007,05,05,16,23,10.70
2007,05,05,16,24,10.70
2007,05,05,16,25,10.70
2007,05,05,16,26,10.60
2007,05,05,16,27,10.60
2007,05,05,16,28,10.50
2007,05,05,16,29,10.50
2007,05,05,16,30,10.50
2007,05,05,16,31,10.40
2007,05,05,16,32,10.40
2007,05,05,16,33,10.30
2007,05,05,16,34,10.30
2007,05,05,16,35,10.30
2007,05,05,16,36,10.20
2007,05,05,16,37,10.20
2007,05,05,16,38,10.20
2007,05,05,16,39,10.20
2007,05,05,16,40,10.20
2007,05,05,16,41,10.20
2007,05,05,16,42,10.10
2007,05,05,16,43,10.10
2007,05,05,16,44,10.10
2007,05,05,16,45,10.00
2007,05,05,16,46,9.90
2007,05,05,16,47,9.90
2007,05,05,16,48,9.80
2007,05,05,16,49,9.80
2007,05,05,16,50,9.80
2007,05,05,16,51,9.70
2007,05,05,16,52,9.70
2007,05,05,16,53,9.60
2007,05,05,16,54,9.60
2007,05,05,16,55,9.60
2007,05,05,16,56,9.50
2007,05,05,16,57,9.50
2007,05,05,16,58,9.50
2007,05,05,16,59,9.40
2007,05,05,17,00,9.40
2007,05,05,17,01,9.40
2007,05,05,17,02,9.30
2007,05,05,17,03,9.30
2007,05,05,17,04,9.30
2007,05,05,17,05,9.30
2007,05,05,17,06,9.30
2007,05,05,17,07,9.30
2007,05,05,17,08,9.30
2007,05,05,17,09,9.20
2007,05,05,17,10,9.20
2007,05,05,17,11,9.20
2007,05,05,17,12,9.20
2007,05,05,17,13,9.10
2007,05,05,17,14,9.10
2007,05,05,17,15,9.10
2007,05,05,17,16,9.10
2007,05,05,17,17,9.10
2007,05,05,17,18,9.10
2007,05,05,17,19,9.20
2007,05,05,17,20,9.20
2007,05,05,17,21,9.20
2007,05,05,17,22,9.30
2007,05,05,17,23,9.30
2007,05,05,17,24,9.30
2007,05,05,17,25,9.30
2007,05,05,17,26,9.30
2007,05,05,17,27,9.30
2007,05,05,17,28,9.30
2007,05,05,17,29,9.30
2007,05,05,17,30,9.20
2007,05,05,17,31,9.20
2007,05,05,17,32,9.20
2007,05,05,17,33,9.20
2007,05,05,17,34,9.20
2007,05,05,17,35,9.20
2007,05,05,17,36,9.20
2007,05,05,17,37,9.20
2007,05,05,17,38,9.20
2007,05,05,17,39,9.30
2007,05,05,17,40,9.30
2007,05,05,17,41,9.30
2007,05,05,17,42,9.30
2007,05,05,17,43,9.30
2007,05,05,17,44,9.30
2007,05,05,17,45,9.30
2007,05,05,17,46,9.30
2007,05,05,17,47,9.30
2007,05,05,17,48,9.30
2007,05,05,17,49,9.30
2007,05,05,17,50,9.30
2007,05,05,17,51,9.30
2007,05,05,17,52,9.30